This is the latest recevied weather packets stored in our database for station/object IW2NIA-3. If no packets are shown the sender has not sent any weather packets the latest 10 day(s).
| Time | Temp. | Humidity | Pressure | Rain* | Wind** | Luminosity | Snow |
|---|---|---|---|---|---|---|---|
| 1787421812 | 25.56° C | 56% | 1013.5 hPa | 0 mm | - | - | - |
| 1787420913 | 26.11° C | 52% | 1013.3 hPa | 0 mm | - | - | - |
| 1787420010 | 26.67° C | 46% | 1013.3 hPa | 0 mm | - | - | - |
| 1787419111 | 27.22° C | 40% | 1013.2 hPa | 0 mm | - | - | - |
| 1787418228 | 27.22° C | 44% | 1013.1 hPa | 0 mm | - | - | - |
| 1787417322 | 27.22° C | 44% | 1013.2 hPa | 0 mm | - | - | - |
| 1787416416 | 27.22° C | 47% | 1013.1 hPa | 0 mm | - | - | - |
| 1787415513 | 27.22° C | 47% | 1013.1 hPa | 0 mm | - | - | - |
| 1787414611 | 27.22° C | 48% | 1013.1 hPa | 0 mm | - | - | - |
| 1787413725 | 27.78° C | 43% | 1013 hPa | 0 mm | - | - | - |
| 1787412819 | 27.78° C | 44% | 1013 hPa | 0 mm | - | - | - |
| 1787411918 | 28.33° C | 42% | 1013 hPa | 0 mm | - | - | - |
| 1787411014 | 27.78° C | 40% | 1012.9 hPa | 0 mm | - | - | - |
| 1787410116 | 28.33° C | 40% | 1013 hPa | 0 mm | - | - | - |
| 1787409210 | 28.89° C | 42% | 1012.9 hPa | 0 mm | - | - | - |
| 1787408322 | 28.33° C | 39% | 1012.9 hPa | 0 mm | - | - | - |
| 1787407417 | 28.33° C | 37% | 1012.9 hPa | 0 mm | - | - | - |
| 1787406513 | 28.89° C | 44% | 1012.9 hPa | 0 mm | - | - | - |
| 1787405610 | 28.33° C | 44% | 1013 hPa | 0 mm | - | - | - |
| 1787404706 | 28.33° C | 43% | 1013.1 hPa | 0 mm | - | - | - |
| 1787403824 | 28.33° C | 46% | 1013 hPa | 0 mm | - | - | - |
| 1787402921 | 27.78° C | 44% | 1013.1 hPa | 0 mm | - | - | - |
| 1787402006 | 28.33° C | 44% | 1013.1 hPa | 0 mm | - | - | - |
| 1787401128 | 27.78° C | 44% | 1013.1 hPa | 0 mm | - | - | - |
| 1787400209 | 27.22° C | 46% | 1013.2 hPa | 0 mm | - | - | - |
* Rain latest hour (hover to see other rain measurements)
** Current wind speed in m/s (hover to see current wind gust speed)